[[{"header":{"parameterUnit":"m.s-1","parameterCategory":2,"la1":30.2991,"la2":30.254,"lo1":-89.0895,"lo2":-89.0444,"dy":0.0017,"dx":0.0017,"nx":28,"ny":28,"refTime":"2024-09-26T03:00:00:Z","depth":"0","parameterNumber":2,"parameterNumberName":"U-component_of_CURRENTS"},"data":[0,0,0,0,0,0,0,0,0,0,0,0,0,0,0,0,0,0,0,0,0,0,0,0,0,0,0,0,0,0,0,0,0,0,0,0,0,0,0,0,0,0,0,0,0,0,0,0,0,0,0,0,0,0,0,0,0,0,0.208,0.208,0,0.2102,0.2102,0.2102,0.2099,0.2099,0.2098,0.2098,0.2071,0.207,0.207,0,0,0,0,0,0,0,0,0,0,0,0,0,0.202,0.2021,0.208,0.208,0.2081,0.2102,0.2102,0.2102,0.2099,0.2099,0.2098,0.2098,0.2071,0.2071,0.207,0,0,0,0,0,0,0,0,0,0,0,0,0,0.2042,0.2022,0.2079,0.2083,0.2084,0.2102,0.2102,0.2102,0.2099,0.2099,0.2098,0.2098,0.2071,0.2071,0.207,0.2069,0,0,0.2067,0.2067,0,0,0,0,0,0,0,0,0.2041,0.2044,0.2082,0.2083,0.2084,0.21,0.2072,0.209,0.2099,0.209,0.2098,0.2098,0.2078,0.2076,0.2078,0.2068,0.2067,0.2067,0.2066,0.2066,0.2066,0,0,0,0,0,0,0,0.204,0.2043,0.2086,0.2083,0.2084,0.208,0.2082,0.2075,0.2082,0.2091,0.2092,0.2098,0.2078,0.2079,0.2077,0.2066,0.2067,0.2066,0.2066,0.2065,0.2075,0.2076,0,0,0,0,0,0,0.2043,0.2042,0.2085,0.2087,0.2065,0.2081,0.2084,0.2093,0.2083,0.2083,0.2099,0.2098,0.2081,0.2079,0.2076,0.2094,0.2066,0.2065,0.2065,0.2074,0.2075,0.2076,0,0,0,0,0,0,0.2042,0.2047,0.2084,0.2067,0.2072,0.2083,0.2092,0.2093,0.2099,0.209,0.2088,0.2104,0.208,0.2078,0.2078,0.2092,0.2065,0.2064,0.2073,0.2075,0.2076,0.2117,0,0,0,0,0,0,0.204,0.2046,0.2051,0.2067,0.2073,0.2099,0.2093,0.2094,0.2105,0.2104,0.2094,0.2091,0.208,0.208,0.2078,0.2091,0.2063,0.2072,0.2074,0.2075,0.2115,0.2119,0.2124,0,0,0,0,0,0.2038,0.2046,0.2052,0.2057,0.208,0.21,0.2102,0.2107,0.2105,0.211,0.2106,0.2091,0.2088,0.208,0.2077,0.209,0.2072,0.2074,0.2075,0.2113,0.2118,0.2123,0,0,0,0,0,0,0.2019,0.2048,0.2053,0.2069,0.2086,0.21,0.2106,0.2111,0.2113,0.211,0.2099,0.2096,0.2103,0.2091,0.2083,0.2098,0.2078,0.2079,0.2108,0.2113,0.2117,0.2121,0.2063,0,0,0,0,0,0.202,0.2035,0.2059,0.2071,0.2081,0.2094,0.2102,0.2108,0.2114,0.2115,0.2109,0.2105,0.2108,0.2106,0.2102,0.2108,0.2127,0.2116,0.212,0.2124,0.2126,0.2166,0.2174,0.2082,0.2082,0.2082,0,0,0.2014,0.2033,0.204,0.2068,0.208,0.2099,0.2098,0.2113,0.2128,0.2111,0.2121,0.2118,0.2113,0.2123,0.2124,0.2114,0.2167,0.2126,0.2129,0.2129,0.2169,0.2178,0.2186,0.2083,0.2083,0.2083,0,0,0.2016,0.203,0.2046,0.2064,0.209,0.2101,0.2108,0.2126,0.2133,0.2147,0.2141,0.2149,0.2146,0.2152,0.2153,0.218,0.2189,0.2176,0.2201,0.2241,0.2249,0.2256,0.2321,0.2334,0.2179,0.2179,0.2179,0,0.2006,0.2037,0.2051,0.2075,0.2096,0.2104,0.2129,0.2136,0.2151,0.2167,0.2154,0.2176,0.2164,0.2193,0.2197,0.2191,0.2221,0.2181,0.2247,0.2255,0.2261,0.2326,0.2339,0.2181,0.2181,0.2181,0.218,0,0.2026,0.2051,0.2063,0.2098,0.2118,0.2141,0.2161,0.2174,0.2183,0.2198,0.2227,0.2219,0.224,0.2233,0.2219,0.2261,0.2273,0.225,0.2235,0.2273,0.2339,0.2353,0.2184,0.2183,0.2183,0.2182,0,0,0.2011,0.2066,0.2072,0.2103,0.2138,0.2161,0.2184,0.2222,0.2256,0.2256,0.2307,0.2297,0.2303,0.2305,0.2295,0.2313,0.2387,0.2298,0.2299,0.2366,0.2501,0.253,0.2547,0.2376,0.2378,0.2379,0.2539,0,0.2027,0.208,0.2102,0.2154,0.2188,0.2209,0.224,0.2271,0.2295,0.234,0.2342,0.238,0.2329,0.2352,0.2361,0.2383,0.2419,0.2348,0.2451,0.2454,0.2477,0.2562,0.2569,0.2713,0.2552,0.2554,0.2556,0,0.205,0.2086,0.214,0.2211,0.2228,0.2255,0.2323,0.2351,0.2403,0.2427,0.2456,0.2467,0.2503,0.2452,0.2516,0.2475,0.2492,0.25,0.2506,0.2523,0.2507,0.2642,0.2743,0.2749,0.2576,0.2575,0.2573,0,0.2058,0.2122,0.2171,0.2192,0.226,0.229,0.2325,0.2379,0.242,0.2489,0.2536,0.2573,0.2614,0.2627,0.2637,0.2591,0.2715,0.266,0.2709,0.2712,0.2734,0.2735,0.2852,0.2714,0.2714,0.2713,0.2713,0,0.2081,0.212,0.2181,0.2208,0.2267,0.2315,0.238,0.2417,0.2494,0.2552,0.2584,0.2643,0.2655,0.2717,0.2704,0.277,0.2782,0.2743,0.2761,0.2751,0.2752,0.2767,0.2748,0.2719,0.2718,0.2717,0.2716,0,0.2077,0.2121,0.2177,0.2249,0.2271,0.2313,0.2395,0.2445,0.2524,0.2604,0.2635,0.273,0.2816,0.2842,0.2898,0.288,0.2889,0.2937,0.294,0.2954,0.2979,0.2961,0.2948,0.2827,0.3031,0.3033,0.3034,0,0.2074,0.2104,0.2184,0.2212,0.2241,0.2306,0.2347,0.2437,0.2491,0.2646,0.2687,0.282,0.2894,0.3027,0.3041,0.3095,0.2974,0.3116,0.301,0.3016,0.3009,0.2851,0.2735,0.3074,0.3076,0.3077,0.3078,0,0.2044,0.2077,0.2115,0.218,0.2228,0.2282,0.2352,0.2398,0.2512,0.2606,0.2745,0.2837,0.3004,0.3088,0.3172,0.3176,0.3038,0.3145,0.3151,0.3065,0.2901,0.2782,0.2947,0.309,0.3089,0.3088,0.3088,0.3087,0.2,0.2014,0.2067,0.2135,0.2183,0.2233,0.2256,0.2339,0.2427,0.2533,0.2705,0.2839,0.309,0.322,0.3209,0.3269,0.3117,0.3236,0.3225,0.307,0.2913,0.3118,0.3266,0.3265,0.3265,0.3265,0.3265,0,0.1945,0.197,0.2016,0.2076,0.2113,0.2168,0.2237,0.2257,0.2318,0.2459,0.2587,0.2915,0.309,0.3243,0.3426,0.3387,0.316,0.3336,0.3132,0.301,0.3243,0.3206,0.3348,0.3348,0.3348,0.3348,0.3347,0.3347,0.1904,0.1924,0.1963,0.1992,0.2035,0.2032,0.2057,0.2098,0.219,0.2343,0.2515,0.2708,0.3157,0.3585,0.3665,0.3557,0.3258,0.3213,0.307,0.3315,0.3303,0.3292,0.3254,0.3403,0.3403,0.2729,0.2725,0.2722]},{"header":{"parameterUnit":"m.s-1","parameterCategory":2,"la1":30.2991,"la2":30.254,"lo1":-89.0895,"lo2":-89.0444,"dy":0.0017,"dx":0.0017,"nx":28,"ny":28,"refTime":"2024-09-26T03:00:00:Z","depth":"0","parameterNumber":3,"parameterNumberName":"V-component_of_CURRENTS"},"data":[0,0,0,0,0,0,0,0,0,0,0,0,0,0,0,0,0,0,0,0,0,0,0,0,0,0,0,0,0,0,0,0,0,0,0,0,0,0,0,0,0,0,0,0,0,0,0,0,0,0,0,0,0,0,0,0,0,0,-0.0505,-0.0505,0,-0.0549,-0.055,-0.055,-0.0585,-0.0586,-0.0586,-0.0586,-0.0626,-0.0627,-0.0628,0,0,0,0,0,0,0,0,0,0,0,0,0,-0.049,-0.049,-0.0505,-0.0505,-0.0506,-0.0549,-0.055,-0.0551,-0.0585,-0.0586,-0.0586,-0.0586,-0.0626,-0.0627,-0.0628,0,0,0,0,0,0,0,0,0,0,0,0,0,-0.0512,-0.049,-0.0505,-0.0528,-0.053,-0.0549,-0.055,-0.0551,-0.0585,-0.0586,-0.0586,-0.0586,-0.0626,-0.0627,-0.0628,-0.0628,0,0,-0.0632,-0.0633,0,0,0,0,0,0,0,0,-0.0511,-0.0513,-0.0524,-0.0526,-0.0529,-0.0562,-0.0559,-0.0576,-0.0585,-0.0565,-0.0586,-0.0587,-0.0603,-0.0607,-0.0615,-0.063,-0.0631,-0.0632,-0.0633,-0.0633,-0.0634,0,0,0,0,0,0,0,-0.0509,-0.0511,-0.0523,-0.0524,-0.0527,-0.055,-0.0553,-0.0563,-0.0582,-0.0567,-0.0569,-0.0573,-0.0605,-0.0614,-0.0616,-0.0632,-0.0632,-0.0633,-0.0634,-0.0634,-0.0649,-0.0649,0,0,0,0,0,0,-0.05,-0.051,-0.0522,-0.0525,-0.052,-0.0549,-0.0553,-0.0551,-0.0582,-0.0587,-0.0573,-0.0574,-0.0612,-0.0615,-0.0618,-0.0608,-0.0633,-0.0635,-0.0635,-0.0649,-0.0649,-0.0649,0,0,0,0,0,0,-0.0499,-0.05,-0.052,-0.0518,-0.0522,-0.0549,-0.0547,-0.0552,-0.056,-0.0586,-0.0591,-0.0575,-0.0612,-0.0616,-0.0625,-0.0611,-0.0635,-0.0636,-0.065,-0.0649,-0.0649,-0.0596,0,0,0,0,0,0,-0.0498,-0.0499,-0.0494,-0.0517,-0.0522,-0.0522,-0.0546,-0.0553,-0.0561,-0.0564,-0.059,-0.0594,-0.0613,-0.0623,-0.0626,-0.0613,-0.0637,-0.065,-0.065,-0.0649,-0.0598,-0.0594,-0.059,0,0,0,0,0,-0.0497,-0.0482,-0.0493,-0.0495,-0.0513,-0.0521,-0.0525,-0.0547,-0.0561,-0.0557,-0.0579,-0.0593,-0.0621,-0.0623,-0.0627,-0.0614,-0.0651,-0.065,-0.0649,-0.06,-0.0595,-0.059,0,0,0,0,0,0,-0.0469,-0.0485,-0.0498,-0.0487,-0.0501,-0.0526,-0.0523,-0.0542,-0.0557,-0.056,-0.0589,-0.0594,-0.0597,-0.0613,-0.0616,-0.0617,-0.0638,-0.0638,-0.0599,-0.0595,-0.0591,-0.0586,-0.0638,0,0,0,0,0,-0.0461,-0.0455,-0.0476,-0.0468,-0.0471,-0.0498,-0.0504,-0.052,-0.0537,-0.0545,-0.0564,-0.0584,-0.0597,-0.0602,-0.0616,-0.0615,-0.0648,-0.061,-0.0606,-0.0602,-0.0602,-0.0641,-0.0641,-0.0646,-0.0646,-0.0646,0,0,-0.0448,-0.0455,-0.0453,-0.0462,-0.0474,-0.0471,-0.0502,-0.0505,-0.0506,-0.0546,-0.0547,-0.0569,-0.0594,-0.0595,-0.0597,-0.0606,-0.0618,-0.0601,-0.0598,-0.0599,-0.064,-0.064,-0.064,-0.0646,-0.0646,-0.0646,0,0,-0.0418,-0.0424,-0.0413,-0.0419,-0.0433,-0.0447,-0.0446,-0.0469,-0.048,-0.0485,-0.0516,-0.053,-0.0546,-0.0564,-0.0575,-0.0557,-0.0596,-0.0559,-0.0532,-0.057,-0.057,-0.057,-0.061,-0.0615,-0.0555,-0.0555,-0.0555,0,-0.0403,-0.0396,-0.041,-0.0402,-0.0406,-0.0432,-0.0425,-0.0434,-0.0458,-0.0468,-0.0476,-0.0516,-0.0532,-0.0545,-0.0536,-0.0546,-0.0578,-0.0546,-0.0565,-0.0566,-0.0567,-0.0608,-0.0614,-0.0553,-0.0553,-0.0553,-0.0553,0,-0.0373,-0.0367,-0.0357,-0.0358,-0.036,-0.0357,-0.0372,-0.0375,-0.0392,-0.0412,-0.043,-0.046,-0.0488,-0.0489,-0.0503,-0.0518,-0.0541,-0.0556,-0.0576,-0.0563,-0.0607,-0.0614,-0.0549,-0.055,-0.0551,-0.0551,0,0,-0.0353,-0.034,-0.034,-0.0334,-0.0341,-0.0339,-0.0331,-0.0343,-0.0344,-0.0367,-0.0379,-0.04,-0.0431,-0.0445,-0.0473,-0.0496,-0.0525,-0.0522,-0.0526,-0.056,-0.0615,-0.0617,-0.0625,-0.0545,-0.0546,-0.0547,-0.0642,0,-0.0334,-0.0307,-0.031,-0.0288,-0.0281,-0.0295,-0.0285,-0.0295,-0.0314,-0.0326,-0.0366,-0.0383,-0.041,-0.0423,-0.0453,-0.0503,-0.0541,-0.0498,-0.0625,-0.0629,-0.063,-0.0632,-0.0657,-0.0742,-0.0649,-0.0651,-0.0651,0,-0.032,-0.0304,-0.0277,-0.0261,-0.0259,-0.0246,-0.0247,-0.0243,-0.0265,-0.028,-0.0315,-0.0349,-0.0385,-0.041,-0.0506,-0.0479,-0.0545,-0.0588,-0.0593,-0.0618,-0.0642,-0.0741,-0.0759,-0.095,-0.0662,-0.0661,-0.0661,0,-0.0312,-0.0289,-0.0265,-0.0259,-0.0238,-0.0229,-0.0223,-0.0233,-0.0219,-0.0256,-0.0252,-0.0323,-0.0339,-0.0434,-0.0513,-0.0517,-0.0618,-0.0642,-0.0715,-0.0717,-0.0774,-0.0778,-0.099,-0.0726,-0.0726,-0.0725,-0.0725,0,-0.0299,-0.028,-0.0256,-0.024,-0.0207,-0.0211,-0.0182,-0.0186,-0.0186,-0.0159,-0.023,-0.022,-0.0342,-0.0407,-0.0509,-0.0622,-0.0625,-0.0714,-0.0741,-0.0755,-0.0757,-0.0954,-0.1059,-0.0729,-0.0728,-0.0728,-0.0727,0,-0.0276,-0.027,-0.0235,-0.0208,-0.0197,-0.0171,-0.013,-0.0104,-0.012,-0.0088,-0.0091,-0.014,-0.0219,-0.0351,-0.0491,-0.0598,-0.084,-0.0764,-0.0768,-0.0793,-0.1038,-0.1137,-0.1383,-0.1487,-0.0874,-0.0875,-0.0876,0,-0.0249,-0.0226,-0.0194,-0.017,-0.0151,-0.0113,-0.0075,-0.0068,-0.003,-0.0023,0.0008,-0.006,-0.0078,-0.0294,-0.0494,-0.0696,-0.0872,-0.0867,-0.0879,-0.106,-0.1193,-0.1272,-0.1348,-0.0944,-0.0945,-0.0946,-0.0947,0,-0.0173,-0.0168,-0.0121,-0.0101,-0.0061,-0.0002,0.0049,0.0098,0.0118,0.0149,0.0189,0.0171,-0.0039,-0.0232,-0.0513,-0.067,-0.1033,-0.0889,-0.109,-0.1275,-0.1366,-0.1475,-0.0875,-0.0954,-0.0954,-0.0953,-0.0953,-0.0952,-0.0098,-0.0049,-0.002,0.0,0.004,0.0108,0.0173,0.025,0.0337,0.0408,0.0357,0.0348,-0.0003,-0.0373,-0.0618,-0.1095,-0.1088,-0.1245,-0.1354,-0.142,-0.1517,-0.0923,-0.1017,-0.1016,-0.1016,-0.1016,-0.1016,0,-0.0047,0.0007,0.0066,0.0101,0.0137,0.0138,0.0254,0.0327,0.0452,0.0525,0.0556,0.0343,-0.0069,-0.0519,-0.1126,-0.1479,-0.1643,-0.1704,-0.1853,-0.1909,-0.1398,-0.1396,-0.156,-0.156,-0.156,-0.156,-0.1559,-0.1559,-0.0003,0.0058,0.0084,0.016,0.0187,0.0281,0.0355,0.0473,0.0546,0.0621,0.0597,0.0536,0.0122,-0.0944,-0.1748,-0.195,-0.2262,-0.2327,-0.2463,-0.214,-0.2106,-0.2074,-0.2098,-0.2406,-0.2407,-0.2942,-0.2947,-0.2951]}],[{"header":{"parameterUnit":"m.s-1","parameterCategory":2,"la1":30.2991,"la2":30.254,"lo1":-89.0895,"lo2":-89.0444,"dy":0.0017,"dx":0.0017,"nx":28,"ny":28,"refTime":"2024-09-26T03:00:00:Z","depth":"2","parameterNumber":2,"parameterNumberName":"U-component_of_CURRENTS"},"data":[0,0,0,0,0,0,0,0,0,0,0,0,0,0,0,0,0,0,0,0,0,0,0,0,0,0,0,0,0,0,0,0,0,0,0,0,0,0,0,0,0,0,0,0,0,0,0,0,0,0,0,0,0,0,0,0,0,0,0.2074,0.2075,0,0.2097,0.2097,0.2097,0.2094,0.2094,0.2093,0.2093,0.2067,0.2067,0.2066,0,0,0,0,0,0,0,0,0,0,0,0,0,0.2016,0.2017,0.2074,0.2075,0.2075,0.2097,0.2097,0.2097,0.2094,0.2094,0.2093,0.2093,0.2067,0.2067,0.2066,0,0,0,0,0,0,0,0,0,0,0,0,0,0.2038,0.2017,0.2074,0.2078,0.2079,0.2097,0.2097,0.2097,0.2094,0.2094,0.2093,0.2093,0.2068,0.2067,0.2066,0.2065,0,0,0.2063,0.2063,0,0,0,0,0,0,0,0,0.2037,0.204,0.2077,0.2078,0.2079,0.2095,0.2067,0.2085,0.2094,0.2085,0.2093,0.2093,0.2074,0.2072,0.2074,0.2064,0.2062,0.2063,0.2063,0.2062,0.2062,0,0,0,0,0,0,0,0.2035,0.2039,0.2081,0.2078,0.2079,0.2075,0.2078,0.207,0.2077,0.2086,0.2087,0.2093,0.2073,0.2075,0.2073,0.2062,0.2063,0.2062,0.2062,0.2062,0.2072,0.2072,0,0,0,0,0,0,0.2039,0.2037,0.208,0.2082,0.206,0.2076,0.2079,0.2088,0.2079,0.2078,0.2094,0.2093,0.2076,0.2074,0.2072,0.209,0.2062,0.2061,0.2061,0.2071,0.2072,0.2073,0,0,0,0,0,0,0.2037,0.2042,0.2079,0.2062,0.2067,0.2078,0.2087,0.2088,0.2094,0.2085,0.2083,0.2099,0.2076,0.2073,0.2075,0.2088,0.2061,0.206,0.207,0.2071,0.2072,0.2113,0,0,0,0,0,0,0.2036,0.2042,0.2047,0.2062,0.2068,0.2094,0.2088,0.2089,0.21,0.2099,0.2089,0.2086,0.2076,0.2076,0.2074,0.2087,0.206,0.2069,0.2071,0.2072,0.2111,0.2116,0.212,0,0,0,0,0,0.2033,0.2042,0.2047,0.2052,0.2075,0.2094,0.2097,0.2102,0.21,0.2105,0.2102,0.2087,0.2084,0.2076,0.2073,0.2086,0.2068,0.207,0.2072,0.2109,0.2115,0.212,0,0,0,0,0,0,0.2015,0.2043,0.2049,0.2064,0.2081,0.2095,0.2101,0.2106,0.2108,0.2105,0.2095,0.2092,0.2099,0.2088,0.2079,0.2094,0.2074,0.2076,0.2104,0.2109,0.2113,0.2117,0.2059,0,0,0,0,0,0.2016,0.2031,0.2055,0.2066,0.2076,0.2089,0.2097,0.2103,0.2109,0.211,0.2105,0.2101,0.2104,0.2102,0.2098,0.2104,0.2123,0.2112,0.2116,0.212,0.2122,0.2162,0.2171,0.2078,0.2078,0.2078,0,0,0.201,0.2029,0.2036,0.2064,0.2075,0.2094,0.2093,0.2108,0.2123,0.2106,0.2117,0.2114,0.2109,0.2119,0.2121,0.2111,0.2163,0.2122,0.2126,0.2126,0.2165,0.2174,0.2182,0.208,0.2079,0.2079,0,0,0.2012,0.2026,0.2042,0.206,0.2086,0.2096,0.2103,0.2121,0.2128,0.2142,0.2136,0.2145,0.2142,0.2147,0.2149,0.2176,0.2184,0.2172,0.2197,0.2237,0.2245,0.2252,0.2316,0.2329,0.2175,0.2175,0.2175,0,0.2003,0.2034,0.2047,0.207,0.2092,0.21,0.2125,0.2132,0.2146,0.2163,0.2149,0.2172,0.216,0.2188,0.2192,0.2186,0.2217,0.2177,0.2244,0.2251,0.2258,0.2321,0.2335,0.2177,0.2177,0.2177,0.2176,0,0.2022,0.2048,0.2059,0.2094,0.2114,0.2137,0.2157,0.2169,0.2179,0.2194,0.2223,0.2215,0.2236,0.2229,0.2214,0.2257,0.2269,0.2246,0.2231,0.227,0.2334,0.2348,0.218,0.2179,0.2179,0.2178,0,0,0.2008,0.2063,0.2069,0.2101,0.2135,0.2158,0.218,0.2218,0.2252,0.2252,0.2304,0.2293,0.23,0.2301,0.2292,0.2309,0.2383,0.2294,0.2295,0.2362,0.2497,0.2521,0.2538,0.2372,0.2374,0.2375,0.2534,0,0.2024,0.2078,0.2099,0.2151,0.2187,0.2207,0.2237,0.2268,0.2292,0.2337,0.2339,0.2377,0.2326,0.2349,0.2358,0.2378,0.2415,0.2343,0.2446,0.245,0.2469,0.2553,0.2286,0.2405,0.2546,0.2549,0.255,0,0.2049,0.2085,0.2139,0.221,0.2228,0.2254,0.2323,0.235,0.2402,0.2426,0.2455,0.2466,0.2501,0.245,0.2512,0.2472,0.2489,0.2495,0.2501,0.2515,0.2498,0.2384,0.2424,0.2572,0.257,0.2569,0.2567,0,0.2058,0.2121,0.2171,0.2193,0.226,0.2291,0.2325,0.2379,0.2421,0.249,0.2536,0.2573,0.2613,0.2626,0.2633,0.2587,0.2709,0.2655,0.27,0.2703,0.2492,0.2473,0.2709,0.2709,0.2709,0.2708,0.2708,0,0.2082,0.2122,0.2182,0.221,0.2269,0.2317,0.2383,0.242,0.2497,0.2554,0.2585,0.2643,0.2655,0.2715,0.27,0.2763,0.2777,0.2734,0.2751,0.2503,0.2485,0.2624,0.2611,0.2714,0.2713,0.2712,0.2711,0,0.2079,0.2122,0.2179,0.2252,0.2274,0.2316,0.2399,0.2448,0.2527,0.2607,0.2638,0.273,0.2812,0.2837,0.2891,0.2872,0.2912,0.2926,0.2655,0.2637,0.2866,0.2854,0.301,0.3012,0.3014,0.3016,0.3017,0,0.2074,0.2105,0.2187,0.2215,0.2245,0.231,0.2351,0.2441,0.2494,0.2647,0.2687,0.2817,0.2883,0.301,0.2971,0.3007,0.3009,0.2814,0.2671,0.2899,0.29,0.2884,0.287,0.2413,0.2409,0.2406,0.2403,0,0.2042,0.2077,0.2115,0.2184,0.2232,0.2284,0.2354,0.2401,0.2513,0.2601,0.2738,0.2821,0.2936,0.2856,0.2913,0.288,0.2785,0.2761,0.3065,0.2392,0.2352,0.2347,0.2349,0.2376,0.2379,0.2381,0.2383,0.2384,0.1997,0.2011,0.2066,0.2138,0.2186,0.2233,0.2255,0.2325,0.2404,0.2475,0.2641,0.2655,0.269,0.2635,0.2592,0.2551,0.2733,0.2588,0.259,0.2596,0.2513,0.2479,0.2514,0.2517,0.252,0.2523,0.2525,0,0.1929,0.1967,0.2014,0.2077,0.2091,0.2169,0.2235,0.2194,0.2229,0.2315,0.2394,0.2206,0.2179,0.2216,0.2118,0.2182,0.2069,0.21,0.1894,0.1926,0.1953,0.1827,0.1652,0.1649,0.1646,0.1644,0,0,0.1884,0.1902,0.1942,0.1954,0.2008,0.197,0.1991,0.196,0.1961,0.1921,0.1909,0.202,0.2133,0.1817,0.1825,0.1723,0.1793,0.1658,0.2361,0.2148,0.217,0.225,0.2097,0,0,0,0,0]},{"header":{"parameterUnit":"m.s-1","parameterCategory":2,"la1":30.2991,"la2":30.254,"lo1":-89.0895,"lo2":-89.0444,"dy":0.0017,"dx":0.0017,"nx":28,"ny":28,"refTime":"2024-09-26T03:00:00:Z","depth":"2","parameterNumber":3,"parameterNumberName":"V-component_of_CURRENTS"},"data":[0,0,0,0,0,0,0,0,0,0,0,0,0,0,0,0,0,0,0,0,0,0,0,0,0,0,0,0,0,0,0,0,0,0,0,0,0,0,0,0,0,0,0,0,0,0,0,0,0,0,0,0,0,0,0,0,0,0,-0.0442,-0.0442,0,-0.0485,-0.0486,-0.0486,-0.0522,-0.0522,-0.0522,-0.0522,-0.0563,-0.0564,-0.0564,0,0,0,0,0,0,0,0,0,0,0,0,0,-0.0427,-0.0427,-0.0441,-0.0442,-0.0442,-0.0485,-0.0486,-0.0486,-0.0522,-0.0522,-0.0522,-0.0523,-0.0563,-0.0564,-0.0565,0,0,0,0,0,0,0,0,0,0,0,0,0,-0.0449,-0.0427,-0.0441,-0.0465,-0.0467,-0.0485,-0.0486,-0.0487,-0.0521,-0.0522,-0.0522,-0.0523,-0.0562,-0.0563,-0.0565,-0.0563,0,0,-0.0568,-0.0569,0,0,0,0,0,0,0,0,-0.0447,-0.0449,-0.0461,-0.0463,-0.0466,-0.0498,-0.0496,-0.0512,-0.0521,-0.0502,-0.0522,-0.0523,-0.054,-0.0543,-0.0551,-0.0565,-0.0567,-0.0568,-0.0569,-0.057,-0.057,0,0,0,0,0,0,0,-0.0446,-0.0448,-0.0459,-0.0461,-0.0464,-0.0486,-0.0489,-0.0499,-0.0518,-0.0503,-0.0506,-0.0509,-0.0542,-0.055,-0.0553,-0.0567,-0.0568,-0.0569,-0.057,-0.0571,-0.0585,-0.0585,0,0,0,0,0,0,-0.0436,-0.0446,-0.0458,-0.0461,-0.0457,-0.0486,-0.0489,-0.0488,-0.0518,-0.0523,-0.0509,-0.0511,-0.0548,-0.0551,-0.0554,-0.0546,-0.057,-0.0571,-0.0571,-0.0586,-0.0585,-0.0585,0,0,0,0,0,0,-0.0436,-0.0437,-0.0456,-0.0454,-0.0458,-0.0485,-0.0483,-0.0488,-0.0497,-0.0522,-0.0528,-0.0512,-0.0548,-0.0552,-0.0561,-0.0548,-0.0571,-0.0572,-0.0586,-0.0585,-0.0585,-0.0534,0,0,0,0,0,0,-0.0435,-0.0436,-0.0431,-0.0453,-0.0458,-0.0458,-0.0483,-0.0489,-0.0498,-0.0501,-0.0527,-0.0531,-0.0549,-0.0559,-0.0562,-0.055,-0.0573,-0.0586,-0.0586,-0.0585,-0.0536,-0.0532,-0.0528,0,0,0,0,0,-0.0434,-0.042,-0.0431,-0.0432,-0.045,-0.0457,-0.0461,-0.0483,-0.0497,-0.0494,-0.0516,-0.053,-0.0557,-0.056,-0.0563,-0.0551,-0.0587,-0.0586,-0.0585,-0.0538,-0.0533,-0.0528,0,0,0,0,0,0,-0.0407,-0.0422,-0.0435,-0.0425,-0.0438,-0.0463,-0.046,-0.0479,-0.0494,-0.0498,-0.0526,-0.0531,-0.0534,-0.055,-0.0552,-0.0554,-0.0574,-0.0574,-0.0537,-0.0532,-0.0528,-0.0523,-0.0574,0,0,0,0,0,-0.0399,-0.0394,-0.0414,-0.0406,-0.0409,-0.0436,-0.0442,-0.0457,-0.0475,-0.0483,-0.0502,-0.0521,-0.0534,-0.0539,-0.0553,-0.0552,-0.0584,-0.0548,-0.0544,-0.054,-0.0539,-0.0578,-0.0577,-0.0582,-0.0582,-0.0582,0,0,-0.0386,-0.0394,-0.0391,-0.04,-0.0412,-0.0409,-0.044,-0.0444,-0.0444,-0.0483,-0.0485,-0.0507,-0.0531,-0.0532,-0.0535,-0.0544,-0.0555,-0.0539,-0.0536,-0.0536,-0.0577,-0.0577,-0.0576,-0.0582,-0.0582,-0.0582,0,0,-0.0358,-0.0363,-0.0352,-0.0358,-0.0372,-0.0386,-0.0385,-0.0408,-0.0419,-0.0425,-0.0454,-0.047,-0.0485,-0.0503,-0.0513,-0.0496,-0.0534,-0.0498,-0.0471,-0.0509,-0.0509,-0.0509,-0.0548,-0.0552,-0.0495,-0.0495,-0.0495,0,-0.0343,-0.0336,-0.0349,-0.0341,-0.0345,-0.0372,-0.0365,-0.0373,-0.0397,-0.0407,-0.0416,-0.0456,-0.0471,-0.0484,-0.0475,-0.0485,-0.0517,-0.0485,-0.0504,-0.0505,-0.0506,-0.0546,-0.0551,-0.0492,-0.0492,-0.0493,-0.0493,0,-0.0312,-0.0307,-0.0297,-0.0297,-0.0299,-0.0296,-0.0311,-0.0314,-0.0332,-0.0351,-0.037,-0.04,-0.0428,-0.0429,-0.0443,-0.0458,-0.048,-0.0495,-0.0515,-0.0502,-0.0545,-0.0552,-0.0488,-0.0489,-0.049,-0.0491,0,0,-0.0293,-0.0279,-0.0279,-0.0274,-0.0281,-0.0279,-0.027,-0.0281,-0.0283,-0.0306,-0.0318,-0.0339,-0.0371,-0.0385,-0.0412,-0.0435,-0.0464,-0.0462,-0.0465,-0.0498,-0.0553,-0.0555,-0.0563,-0.0485,-0.0486,-0.0487,-0.0579,0,-0.0274,-0.0247,-0.0249,-0.0228,-0.0221,-0.0235,-0.0224,-0.0234,-0.0252,-0.0265,-0.0304,-0.0322,-0.035,-0.0363,-0.0394,-0.0441,-0.0479,-0.0438,-0.0562,-0.0566,-0.0567,-0.0569,-0.0487,-0.0562,-0.0586,-0.0587,-0.0588,0,-0.0259,-0.0244,-0.0217,-0.0202,-0.0199,-0.0187,-0.0187,-0.0183,-0.0204,-0.0219,-0.0254,-0.0288,-0.0324,-0.035,-0.0443,-0.0417,-0.0484,-0.0525,-0.053,-0.0555,-0.058,-0.0579,-0.0573,-0.0599,-0.0598,-0.0597,-0.0596,0,-0.0253,-0.0229,-0.0206,-0.0201,-0.018,-0.0171,-0.0165,-0.0174,-0.016,-0.0196,-0.0192,-0.0262,-0.0277,-0.0371,-0.045,-0.0455,-0.0552,-0.0576,-0.065,-0.0651,-0.0617,-0.0613,-0.066,-0.066,-0.066,-0.0659,-0.0659,0,-0.024,-0.0221,-0.0199,-0.0184,-0.0151,-0.0154,-0.0126,-0.013,-0.0129,-0.01,-0.0171,-0.0158,-0.028,-0.0344,-0.0444,-0.0556,-0.0559,-0.0648,-0.0675,-0.0596,-0.059,-0.065,-0.0647,-0.0663,-0.0662,-0.0661,-0.0661,0,-0.0217,-0.0212,-0.0178,-0.0153,-0.0142,-0.0117,-0.0075,-0.0049,-0.0064,-0.0031,-0.0034,-0.0078,-0.0154,-0.0286,-0.0424,-0.0531,-0.065,-0.0696,-0.0593,-0.0606,-0.0733,-0.0727,-0.0803,-0.0804,-0.0805,-0.0805,-0.0806,0,-0.0186,-0.0166,-0.0138,-0.0115,-0.0097,-0.0061,-0.0022,-0.0014,0.0024,0.0036,0.0068,0.0004,-0.0007,-0.0219,-0.0393,-0.0587,-0.0643,-0.0686,-0.0685,-0.0729,-0.0748,-0.0741,-0.0734,-0.0623,-0.0622,-0.0621,-0.0621,0,-0.0104,-0.0104,-0.0059,-0.0047,-0.0008,0.0054,0.0105,0.0155,0.0176,0.0212,0.0256,0.0245,0.0061,-0.0073,-0.0343,-0.0478,-0.0649,-0.0677,-0.0748,-0.0595,-0.0566,-0.0582,-0.058,-0.0613,-0.0614,-0.0614,-0.0615,-0.0615,-0.0023,0.0024,0.0045,0.0055,0.0096,0.0168,0.0233,0.0327,0.0423,0.0513,0.0461,0.0484,0.0255,-0.0009,-0.0272,-0.0561,-0.0576,-0.0683,-0.0683,-0.0684,-0.0642,-0.0615,-0.0664,-0.0665,-0.0666,-0.0667,-0.0668,0,0.006,0.0078,0.0134,0.0161,0.0241,0.0194,0.0316,0.0455,0.0608,0.0672,0.0733,0.0618,0.0425,0.0126,-0.0263,-0.0529,-0.0541,-0.0636,-0.0579,-0.0584,-0.0589,-0.0541,-0.0537,-0.0538,-0.0538,-0.0539,0,0,0.0114,0.0186,0.0208,0.0308,0.03,0.0448,0.0527,0.0702,0.0824,0.0966,0.096,0.0941,0.0555,0.0311,-0.0045,-0.0295,-0.0388,-0.0349,-0.042,-0.0315,-0.0317,-0.0577,-0.0504,0,0,0,0,0]}],[{"header":{"parameterUnit":"m.s-1","parameterCategory":2,"la1":30.2991,"la2":30.254,"lo1":-89.0895,"lo2":-89.0444,"dy":0.0017,"dx":0.0017,"nx":28,"ny":28,"refTime":"2024-09-26T03:00:00:Z","depth":"4","parameterNumber":2,"parameterNumberName":"U-component_of_CURRENTS"},"data":[0,0,0,0,0,0,0,0,0,0,0,0,0,0,0,0,0,0,0,0,0,0,0,0,0,0,0,0,0,0,0,0,0,0,0,0,0,0,0,0,0,0,0,0,0,0,0,0,0,0,0,0,0,0,0,0,0,0,0.1283,0.1283,0,0.1333,0.1334,0.1334,0.1376,0.1377,0.1377,0.1378,0.1432,0.1433,0.1434,0,0,0,0,0,0,0,0,0,0,0,0,0,0.1206,0.1207,0.1283,0.1283,0.1284,0.1333,0.1334,0.1334,0.1376,0.1377,0.1377,0.1378,0.1432,0.1433,0.1434,0,0,0,0,0,0,0,0,0,0,0,0,0,0.1244,0.1208,0.1282,0.1312,0.1316,0.1333,0.1334,0.1334,0.1376,0.1377,0.1378,0.1378,0.1432,0.1433,0.1434,0.1424,0,0,0.1438,0.1439,0,0,0,0,0,0,0,0,0.1242,0.1247,0.1307,0.131,0.1314,0.1351,0.1327,0.1365,0.1376,0.1351,0.1378,0.1379,0.1406,0.1409,0.1414,0.1426,0.1429,0.1438,0.1439,0.144,0.144,0,0,0,0,0,0,0,0.124,0.1245,0.1301,0.1308,0.1312,0.1318,0.1324,0.1334,0.1371,0.1353,0.1357,0.1365,0.1408,0.1413,0.1416,0.1429,0.1438,0.144,0.144,0.1441,0.1521,0.1522,0,0,0,0,0,0,0.1237,0.1243,0.1299,0.1302,0.1282,0.1319,0.1326,0.1337,0.1371,0.1378,0.1364,0.1367,0.141,0.1414,0.1418,0.1488,0.144,0.1441,0.1442,0.152,0.1521,0.1523,0,0,0,0,0,0,0.1235,0.1242,0.1297,0.1275,0.1283,0.1319,0.1331,0.1337,0.1371,0.138,0.1387,0.1396,0.1411,0.1416,0.1455,0.1487,0.1442,0.1443,0.1518,0.152,0.1522,0.1575,0,0,0,0,0,0,0.1233,0.1241,0.126,0.1275,0.1284,0.1326,0.133,0.1338,0.1374,0.1379,0.1408,0.1413,0.1412,0.1453,0.1456,0.1488,0.1444,0.1516,0.1519,0.1521,0.1572,0.1579,0.1585,0,0,0,0,0,0.123,0.1249,0.1261,0.1269,0.1305,0.1327,0.1333,0.136,0.1375,0.1393,0.1418,0.1413,0.1471,0.1455,0.1459,0.1491,0.1515,0.1518,0.1521,0.1569,0.1578,0.1585,0,0,0,0,0,0,0.1228,0.1256,0.1269,0.1297,0.132,0.1336,0.1361,0.1375,0.1408,0.1423,0.1428,0.1434,0.1481,0.1478,0.146,0.1522,0.1493,0.1497,0.1529,0.1537,0.1543,0.154,0.1445,0,0,0,0,0,0.1235,0.126,0.1282,0.1308,0.1323,0.1346,0.1364,0.1383,0.1407,0.1424,0.1445,0.1468,0.149,0.1508,0.1523,0.1556,0.1558,0.158,0.1587,0.1592,0.1592,0.1612,0.162,0.1533,0.1533,0.1533,0,0,0.1242,0.1262,0.1277,0.1311,0.1333,0.1355,0.136,0.1397,0.1423,0.1423,0.1475,0.1493,0.1504,0.1543,0.1564,0.1549,0.1625,0.1596,0.1601,0.1598,0.1616,0.1625,0.1632,0.1535,0.1534,0.1534,0,0,0.1256,0.1287,0.1309,0.133,0.1369,0.1383,0.14,0.1432,0.1459,0.1503,0.1512,0.1549,0.1584,0.1597,0.1607,0.1657,0.1658,0.1671,0.1704,0.1724,0.1731,0.1737,0.1779,0.1788,0.1675,0.1675,0.1675,0,0.1265,0.1293,0.1319,0.1343,0.1364,0.1398,0.1422,0.1451,0.1494,0.1519,0.153,0.1596,0.1607,0.1649,0.167,0.1672,0.1691,0.1673,0.1732,0.1738,0.1743,0.1784,0.1793,0.1678,0.1678,0.1677,0.1677,0,0.1283,0.1316,0.1333,0.1374,0.14,0.143,0.1466,0.1507,0.1546,0.1571,0.1635,0.1657,0.1695,0.1709,0.1707,0.1756,0.1762,0.1736,0.171,0.1755,0.1796,0.1805,0.1682,0.1681,0.168,0.168,0,0,0.1261,0.1332,0.1339,0.1362,0.142,0.1437,0.1495,0.1543,0.1584,0.1639,0.1687,0.1736,0.1758,0.1769,0.178,0.1801,0.1864,0.1792,0.1792,0.1831,0.1935,0.1826,0.1826,0.1852,0.1853,0.1854,0.1958,0,0.1267,0.1312,0.1349,0.1394,0.1417,0.1471,0.1514,0.1568,0.1624,0.168,0.1723,0.178,0.1778,0.1815,0.1832,0.1858,0.1887,0.184,0.1887,0.1889,0.1783,0.1831,0.1858,0.1964,0.1966,0.1968,0.1969,0,0.1255,0.1292,0.1339,0.1401,0.1417,0.1459,0.1536,0.1581,0.1668,0.1717,0.1784,0.1823,0.189,0.1868,0.1942,0.1918,0.1932,0.1944,0.1947,0.1828,0.1795,0.1903,0.1985,0.1984,0.1982,0.1981,0.198,0,0.1203,0.1273,0.1314,0.1336,0.1418,0.1462,0.1514,0.16,0.1653,0.1758,0.1817,0.1884,0.1945,0.197,0.2013,0.1989,0.2079,0.2043,0.1962,0.1957,0.2,0.1991,0.2079,0.2079,0.2079,0.2078,0.2078,0,0.1172,0.1205,0.1302,0.1322,0.1377,0.1442,0.1518,0.1583,0.1686,0.1743,0.1839,0.1893,0.1974,0.2034,0.2043,0.2041,0.211,0.1977,0.197,0.2024,0.2018,0.2008,0.1998,0.2082,0.2082,0.2081,0.208,0,0.1109,0.1173,0.1222,0.132,0.1358,0.1399,0.1528,0.1574,0.1691,0.1774,0.182,0.1937,0.2014,0.2084,0.214,0.208,0.2087,0.2065,0.2157,0.2152,0.1949,0.1941,0.1983,0.198,0.1977,0.1975,0.1973,0,0.1079,0.1103,0.1211,0.1246,0.1304,0.1386,0.144,0.1567,0.1616,0.1776,0.1795,0.1931,0.1991,0.1997,0.2067,0.2102,0.2066,0.2066,0.1964,0.1947,0.1937,0.1933,0.1929,0.1969,0.1968,0.1968,0.1967,0,0.1025,0.108,0.1124,0.1196,0.1262,0.1322,0.141,0.1442,0.1572,0.1695,0.1735,0.1787,0.1869,0.1915,0.1971,0.1977,0.206,0.2038,0.2042,0.1946,0.1931,0.1922,0.1921,0.1958,0.1959,0.196,0.1961,0,0.0985,0.1015,0.1083,0.1128,0.1203,0.1234,0.1292,0.1347,0.1415,0.158,0.1585,0.1719,0.1832,0.1852,0.1893,0.191,0.1869,0.179,0.1806,0.1818,0.1715,0.1668,0.1614,0,0,0,0,0,0.0934,0.0967,0.101,0.1061,0.1121,0.1163,0.1256,0.1313,0.1439,0.1423,0.1501,0.1565,0.1634,0.1702,0.1688,0.1836,0.1888,0.1813,0.1807,0.1907,0.1918,0.1811,0,0,0,0,0,0,0.091,0.0961,0.0984,0.0981,0.0999,0.1062,0.1113,0.1195,0.1188,0.132,0.1362,0.1468,0.156,0.1628,0.1657,0.1682,0.1646,0.1901,0.1897,0.1901,0.1911,0.1919,0.1814,0,0,0,0,0]},{"header":{"parameterUnit":"m.s-1","parameterCategory":2,"la1":30.2991,"la2":30.254,"lo1":-89.0895,"lo2":-89.0444,"dy":0.0017,"dx":0.0017,"nx":28,"ny":28,"refTime":"2024-09-26T03:00:00:Z","depth":"4","parameterNumber":3,"parameterNumberName":"V-component_of_CURRENTS"},"data":[0,0,0,0,0,0,0,0,0,0,0,0,0,0,0,0,0,0,0,0,0,0,0,0,0,0,0,0,0,0,0,0,0,0,0,0,0,0,0,0,0,0,0,0,0,0,0,0,0,0,0,0,0,0,0,0,0,0,0.0152,0.0151,0,0.0113,0.0112,0.0112,0.0089,0.0089,0.0089,0.0089,0.0043,0.0042,0.0041,0,0,0,0,0,0,0,0,0,0,0,0,0,0.0186,0.0185,0.0152,0.0151,0.0151,0.0113,0.0112,0.0112,0.0089,0.0089,0.0089,0.0089,0.0044,0.0042,0.0041,0,0,0,0,0,0,0,0,0,0,0,0,0,0.0161,0.0185,0.0152,0.0135,0.0133,0.0113,0.0112,0.0112,0.0089,0.0089,0.0089,0.0089,0.0044,0.0042,0.0041,0.0033,0,0,0.0035,0.0035,0,0,0,0,0,0,0,0,0.0163,0.016,0.0138,0.0136,0.0134,0.0106,0.0107,0.0085,0.009,0.0106,0.0089,0.0089,0.0063,0.006,0.0053,0.0031,0.0029,0.0035,0.0034,0.0034,0.0033,0,0,0,0,0,0,0,0.0165,0.0162,0.0136,0.0137,0.0135,0.0122,0.0119,0.0103,0.0086,0.0105,0.0103,0.0098,0.0062,0.0055,0.0052,0.0028,0.0035,0.0034,0.0033,0.0032,-0.0027,-0.0028,0,0,0,0,0,0,0.017,0.0163,0.0138,0.0135,0.0148,0.0122,0.0118,0.0115,0.0086,0.0082,0.0099,0.0098,0.0058,0.0054,0.005,0.0025,0.0034,0.0032,0.0031,-0.0027,-0.0027,-0.0028,0,0,0,0,0,0,0.0171,0.0169,0.0139,0.0148,0.0144,0.0121,0.0118,0.0114,0.0105,0.0082,0.0077,0.0093,0.0058,0.0053,0.0033,0.0024,0.0031,0.003,-0.0026,-0.0027,-0.0028,-0.0015,0,0,0,0,0,0,0.0172,0.0169,0.0169,0.0149,0.0143,0.0127,0.0118,0.0114,0.0103,0.0101,0.0076,0.0071,0.0057,0.0036,0.0031,0.0022,0.0028,-0.0025,-0.0026,-0.0027,-0.0015,-0.0016,-0.0016,0,0,0,0,0,0.0174,0.0175,0.017,0.0166,0.0144,0.0127,0.0123,0.0106,0.0103,0.0098,0.008,0.0072,0.0026,0.0034,0.0029,0.0019,-0.0025,-0.0026,-0.0027,-0.0015,-0.0016,-0.0016,0,0,0,0,0,0,0.0188,0.0172,0.0166,0.0161,0.0145,0.0123,0.0119,0.0107,0.009,0.0089,0.0068,0.0062,0.004,0.0028,0.0037,-0.0003,-0.0002,-0.0004,0.0009,0.0008,0.0007,0.0032,0.0027,0,0,0,0,0,0.0192,0.019,0.0169,0.0166,0.016,0.014,0.0131,0.012,0.0101,0.0094,0.0074,0.0053,0.0031,0.0019,0.0,-0.0019,-0.0025,-0.0031,-0.0031,-0.0032,-0.0016,-0.0031,-0.0031,-0.0032,-0.0032,-0.0032,0,0,0.0198,0.0188,0.0186,0.0169,0.0157,0.0154,0.0134,0.0122,0.0118,0.0092,0.0079,0.0052,0.0026,0.0003,-0.0008,-0.0009,-0.0039,-0.0033,-0.0033,-0.0017,-0.0032,-0.0032,-0.0031,-0.0033,-0.0033,-0.0033,0,0,0.0212,0.0198,0.0205,0.0193,0.0176,0.0162,0.0159,0.0135,0.0123,0.0104,0.0082,0.0053,0.0022,-0.0001,-0.0015,-0.003,-0.004,-0.0042,-0.0026,-0.0041,-0.004,-0.004,-0.0061,-0.0062,-0.0043,-0.0043,-0.0043,0,0.0222,0.0231,0.0203,0.0205,0.0208,0.0169,0.0182,0.0156,0.0127,0.0127,0.0102,0.0057,0.0022,0.0004,-0.0012,-0.003,-0.0038,-0.002,-0.004,-0.0039,-0.0039,-0.0061,-0.0062,-0.0043,-0.0043,-0.0043,-0.0043,0,0.0246,0.0252,0.0254,0.025,0.024,0.0244,0.0211,0.0195,0.0173,0.0154,0.0128,0.0074,0.0055,0.0022,-0.0004,-0.0022,-0.0029,-0.0037,-0.0033,-0.0038,-0.0061,-0.0063,-0.0042,-0.0042,-0.0043,-0.0043,0,0,0.0295,0.0278,0.0283,0.03,0.0272,0.0275,0.0256,0.0248,0.0257,0.0198,0.0209,0.0131,0.0105,0.0086,0.0042,0.001,-0.0022,-0.0014,-0.0015,-0.0026,-0.0055,-0.0071,-0.0075,-0.0029,-0.0029,-0.0029,-0.0077,0,0.0337,0.0362,0.0338,0.037,0.039,0.035,0.0347,0.0325,0.0295,0.0285,0.0216,0.0199,0.0128,0.0115,0.0071,0.0005,-0.0024,-0.0008,-0.0056,-0.0057,-0.0063,-0.0076,-0.0029,-0.0079,-0.0079,-0.0079,-0.008,0,0.0393,0.0404,0.0442,0.0458,0.0464,0.0468,0.0478,0.0465,0.0424,0.0399,0.0357,0.0307,0.0237,0.0184,0.0074,0.0089,0.0025,-0.0033,-0.0036,-0.0049,-0.0076,-0.0071,-0.0083,-0.0083,-0.0083,-0.0083,-0.0082,0,0.0476,0.0491,0.0531,0.0534,0.0528,0.0543,0.0539,0.0511,0.0514,0.0471,0.0469,0.0386,0.0342,0.025,0.0106,0.0097,-0.0006,-0.0029,-0.0099,-0.0101,-0.0076,-0.0076,-0.008,-0.008,-0.008,-0.008,-0.008,0,0.0546,0.0582,0.0575,0.0598,0.0648,0.0621,0.0662,0.0637,0.062,0.0628,0.0537,0.0517,0.0356,0.0269,0.0147,0.0011,0.0026,-0.0091,-0.0111,-0.0074,-0.0072,-0.0078,-0.0078,-0.0082,-0.0081,-0.0081,-0.0081,0,0.0613,0.0615,0.0663,0.0676,0.0686,0.0717,0.0729,0.0751,0.0724,0.0729,0.0718,0.0614,0.0482,0.0329,0.0167,0.0065,-0.006,-0.0102,-0.0051,-0.0068,-0.0154,-0.0153,-0.0184,-0.0185,-0.0185,-0.0186,-0.0187,0,0.0644,0.0674,0.0715,0.0747,0.0751,0.0789,0.0812,0.0798,0.0811,0.0781,0.0785,0.0677,0.0583,0.0351,0.0179,-0.0036,-0.0071,-0.013,-0.015,-0.0147,-0.0164,-0.0161,-0.0158,-0.0188,-0.0188,-0.0188,-0.0188,0,0.0684,0.07,0.072,0.0795,0.0835,0.0876,0.0904,0.0922,0.0901,0.0895,0.0832,0.0702,0.0557,0.0352,0.0185,0.0029,-0.0094,-0.0138,-0.0138,-0.0158,-0.0153,-0.0167,-0.0164,-0.0191,-0.0191,-0.019,-0.019,0,0.0701,0.0717,0.0756,0.0819,0.0883,0.0934,0.0945,0.0945,0.095,0.0909,0.0889,0.0727,0.0629,0.0387,0.0234,0.0073,0.0024,-0.0028,-0.0035,-0.0034,0.0012,0.0041,0.0051,0,0,0,0,0,0.0718,0.0732,0.0783,0.0844,0.0914,0.0955,0.0993,0.0993,0.0983,0.0948,0.0916,0.0778,0.0531,0.0426,0.0263,0.0209,-0.0006,0.0012,-0.007,-0.0205,-0.0202,-0.0176,0,0,0,0,0,0,0.0721,0.0758,0.0773,0.0858,0.0913,0.0978,0.1005,0.0996,0.0966,0.0941,0.0812,0.0746,0.0507,0.0632,0.0266,0.0216,0.0141,-0.0102,-0.0105,-0.0207,-0.0204,-0.0202,-0.0174,0,0,0,0,0]}]]